| time (UTC) | temp F | wind direction | speed MPH | gust MPH | rain 1hr in | rain 24hr in | rain mn in | humidity % | barometer mb |
| 20260502213810 | 51 | 0.0 | 0.0 | 0.00 | 0.00 | 0.00 | 85 | 1004.5 | |
| 20260502211710 | 51 | 0.0 | 0.0 | 0.00 | 0.00 | 0.00 | 83 | 1004.4 | |
| 20260502205610 | 51 | 0.0 | 0.0 | 0.00 | 0.00 | 0.00 | 90 | 1004.3 | |
| 20260502203510 | 51 | 0.0 | 0.0 | 0.00 | 0.00 | 0.00 | 92 | 1004.5 | |
| 20260502195310 | 53 | 0.0 | 0.0 | 0.00 | 0.00 | 0.00 | 73 | 1004.5 | |
| 20260502193210 | 55 | 0.0 | 0.0 | 0.00 | 0.00 | 0.00 | 56 | 1004.8 | |
| 20260502191110 | 57 | 0.0 | 0.0 | 0.00 | 0.00 | 0.00 | 47 | 1004.2 | |
| 20260502185010 | 58 | 0.0 | 0.0 | 0.00 | 0.00 | 0.00 | 46 | 1003.8 | |
| 20260502180810 | 61 | 0.0 | 0.0 | 0.00 | 0.00 | 0.00 | 42 | 1003.1 | |
| 20260502170510 | 66 | 0.0 | 0.0 | 0.00 | 0.00 | 0.00 | 32 | 1002.7 | |
| 20260502162310 | 68 | 0.0 | 0.0 | 0.00 | 0.00 | 0.00 | 26 | 1002.6 | |
| 20260502160210 | 71 | 0.0 | 0.0 | 0.00 | 0.00 | 0.00 | 25 | 1002.6 | |
| 20260502123209 | 75 | 0.0 | 0.0 | 0.00 | 0.00 | 0.00 | 21 | 1004.3 | |
| 20260502121109 | 76 | 0.0 | 0.0 | 0.00 | 0.00 | 0.00 | 18 | 1004.6 | |
| 20260502115009 | 83 | 0.0 | 0.0 | 0.00 | 0.00 | 0.00 | 16 | 1004.8 | |
| 20260502110809 | 81 | 0.0 | 0.0 | 0.00 | 0.00 | 0.00 | 19 | 1005.5 | |
| 20260502104709 | 79 | 0.0 | 0.0 | 0.00 | 0.00 | 0.00 | 20 | 1005.5 | |
| 20260502102609 | 77 | 0.0 | 0.0 | 0.00 | 0.00 | 0.00 | 20 | 1005.7 | |
| 20260502100509 | 78 | 0.0 | 0.0 | 0.00 | 0.00 | 0.00 | 20 | 1005.9 | |
| 20260502090209 | 74 | 0.0 | 0.0 | 0.00 | 0.00 | 0.00 | 24 | 1006.5 | |
| 20260502065608 | 70 | 0.0 | 0.0 | 0.00 | 0.00 | 0.00 | 30 | 1007.5 | |
| 20260502063508 | 67 | 0.0 | 0.0 | 0.00 | 0.00 | 0.00 | 35 | 1007.6 | |
| 20260502061408 | 64 | 0.0 | 0.0 | 0.00 | 0.00 | 0.00 | 39 | 1007.6 | |
| 20260502055308 | 59 | 0.0 | 0.0 | 0.00 | 0.00 | 0.00 | 43 | 1007.8 | |
| 20260502053208 | 55 | 0.0 | 0.0 | 0.00 | 0.00 | 0.00 | 49 | 1007.8 | |
| 20260502051108 | 54 | 0.0 | 0.0 | 0.00 | 0.00 | 0.00 | 51 | 1007.8 | |
| 20260502045008 | 53 | 0.0 | 0.0 | 0.00 | 0.00 | 0.00 | 53 | 1007.8 | |
| 20260502040808 | 50 | 0.0 | 0.0 | 0.00 | 0.00 | 0.00 | 57 | 1008.2 | |
| 20260502034708 | 50 | 0.0 | 0.0 | 0.00 | 0.00 | 0.00 | 57 | 1008.3 | |
| 20260502032608 | 48 | 0.0 | 0.0 | 0.00 | 0.00 | 0.00 | 61 | 1008.4 | |
| 20260502030508 | 48 | 0.0 | 0.0 | 0.00 | 0.00 | 0.00 | 62 | 1008.5 | |
| 20260502024408 | 49 | 0.0 | 0.0 | 0.00 | 0.00 | 0.00 | 60 | 1008.6 | |
| 20260502022308 | 49 | 0.0 | 0.0 | 0.00 | 0.00 | 0.00 | 59 | 1008.8 | |
| 20260502020208 | 50 | 0.0 | 0.0 | 0.00 | 0.00 | 0.00 | 57 | 1009.1 | |
| 20260502014108 | 51 | 0.0 | 0.0 | 0.00 | 0.00 | 0.00 | 55 | 1009.2 | |
| 20260502012008 | 52 | 0.0 | 0.0 | 0.00 | 0.00 | 0.00 | 54 | 1009.2 | |
| 20260502005908 | 53 | 0.0 | 0.0 | 0.00 | 0.00 | 0.00 | 50 | 1009.4 | |
| 20260502003808 | 54 | 0.0 | 0.0 | 0.00 | 0.00 | 0.00 | 48 | 1009.6 | |
| 20260502001708 | 55 | 0.0 | 0.0 | 0.00 | 0.00 | 0.00 | 46 | 1009.8 | |
| 20260501235608 | 55 | 0.0 | 0.0 | 0.00 | 0.00 | 0.00 | 46 | 1009.9 | |
| 20260501233508 | 56 | 0.0 | 0.0 | 0.00 | 0.00 | 0.00 | 44 | 1010.1 | |
| 20260501225308 | 57 | 0.0 | 0.0 | 0.00 | 0.00 | 0.00 | 43 | 1010.4 | |
| 20260501223208 | 58 | 0.0 | 0.0 | 0.00 | 0.00 | 0.00 | 42 | 1010.4 | |
| 20260501221108 | 59 | 0.0 | 0.0 | 0.00 | 0.00 | 0.00 | 41 | 1010.4 | |
| 20260501215008 | 59 | 0.0 | 0.0 | 0.00 | 0.00 | 0.00 | 41 | 1010.4 |